Location: Sternwarte_Laufen
(47.9344°N, 12.9346°E)
Time: 04:31:53
(UTC+02:00)

ISS - Pass Details

Date: 08 July 2025
Orbit: 413 x 417 km, 51.6° (Epoch: 12 July)

Event Time Altitude Azimuth Distance (km) Brightness Sun altitude
Rises 01:12:49 0° 275° (W) 2,354 0.1 -19.6°
Reaches altitude 10° 01:14:58 10° 282° (WNW) 1,492 -0.8 -19.6°
Maximum altitude 01:18:11 43° 355° (N) 600 -2.5 -19.6°
Drops below altitude 10° 01:21:25 10° 69° (ENE) 1,495 -0.7 -19.6°
Sets 01:23:35 0° 77° (ENE) 2,360 0.3 -19.6°
